Location: Mansoura
(31.0409°N, 31.3785°E)
Time: 00:27:12
(UTC+03:00)

BlueWalker 3 - Pass Details

Date: 21 September 2024
Orbit: 472 x 484 km, 53.2° (Epoch: 13 October)

Event Time Altitude Azimuth Distance (km) Brightness Sun altitude
Rises 19:35:22 0° 290° (WNW) 2,536 7.4 -10.1°
Reaches altitude 10° 19:39:43 10° 242° (WSW) 1,656 5.4 -11.0°
Maximum altitude 19:39:57 10° 238° (WSW) 1,653 5.4 -11.1°
Drops below altitude 10° 19:40:12 10° 234° (SW) 1,656 5.3 -11.1°
Sets 19:44:33 0° 186° (S) 2,533 5.5 -12.1°
